BAW31 EGLL-VHHH

Flight info

Callsign BAW31
Flight time N/A
Altitude 33000
Route DET L6 DVR UL9 KONAN DCT KOK DCT MATUG DCT BOMBI DCT TENLO DCT DEXIT DCT BEGLA DCT BALUX DCT SOKRU DCT OPT DCT LUGEB DCT UDROS/N0490F350 UN743 GAKSU UT310 SIN UN644 KARDE UL851 TBN UM11 REBLO DCT TABAS DCT MATAL T916 BALUN/K0902F350 T916 KUNAS N193 LAPZE/K0898F370 N193 SR L163 TISIB L141 KAMUD/K0893S1130 W186 SADAN Y1 NUPNI/K0891S1190 Y1 OMBON W245 OVRAL B330 KWE W181 DUDIT A599 POU R473 SIERA
Aircraft A35K/H-SDE2E3GHIJ3J4J5LM1ORWXY/LB1D1

Departure

Time 2026-05-06 10:18
Airport London Heathrow Airport (EGLL)

Arrival

Time N/A
Airport Hong Kong International Airport (VHHH)
Time Latitude Longitude Altitude Speed Heading
2026-05-06 09:09 51.47050 -0.47733 93 ft 0 kts 89°
2026-05-06 10:06 51.47050 -0.47743 92 ft 4 kts 89°
2026-05-06 10:07 51.47049 -0.47786 93 ft 4 kts 89°
2026-05-06 10:07 51.47049 -0.47820 94 ft 4 kts 100°
2026-05-06 10:07 51.47055 -0.47852 94 ft 4 kts 134°
2026-05-06 10:07 51.47071 -0.47869 93 ft 4 kts 169°
2026-05-06 10:08 51.47096 -0.47873 92 ft 2 kts 179°
2026-05-06 10:08 51.47104 -0.47873 92 ft 1 kts 179°
2026-05-06 10:11 51.47098 -0.47873 92 ft 3 kts 179°
2026-05-06 10:11 51.47074 -0.47872 92 ft 5 kts 179°
2026-05-06 10:11 51.47022 -0.47872 93 ft 10 kts 180°
2026-05-06 10:12 51.46952 -0.47871 92 ft 11 kts 180°
2026-05-06 10:12 51.46881 -0.47871 92 ft 10 kts 180°
2026-05-06 10:12 51.46813 -0.47870 92 ft 7 kts 179°
2026-05-06 10:12 51.46763 -0.47872 92 ft 5 kts 196°
2026-05-06 10:13 51.46751 -0.47903 96 ft 3 kts 246°
2026-05-06 10:13 51.46746 -0.47942 96 ft 5 kts 264°
2026-05-06 10:13 51.46742 -0.48025 92 ft 9 kts 268°
2026-05-06 10:13 51.46742 -0.48072 92 ft 0 kts 270°
2026-05-06 10:14 51.46742 -0.48087 92 ft 4 kts 270°
2026-05-06 10:14 51.46742 -0.48160 92 ft 9 kts 270°
2026-05-06 10:14 51.46742 -0.48291 93 ft 14 kts 269°
2026-05-06 10:15 51.46741 -0.48453 93 ft 15 kts 269°
2026-05-06 10:15 51.46740 -0.48614 92 ft 13 kts 269°
2026-05-06 10:15 51.46716 -0.48727 95 ft 9 kts 212°
2026-05-06 10:15 51.46656 -0.48749 95 ft 7 kts 191°
2026-05-06 10:16 51.46638 -0.48756 94 ft 1 kts 194°
2026-05-06 10:16 51.46618 -0.48765 96 ft 5 kts 196°
2026-05-06 10:16 51.46569 -0.48782 96 ft 9 kts 185°
2026-05-06 10:16 51.46504 -0.48746 97 ft 11 kts 138°
2026-05-06 10:17 51.46479 -0.48571 94 ft 29 kts 91°
2026-05-06 10:17 51.46481 -0.47905 93 ft 90 kts 90°
2026-05-06 10:17 51.46484 -0.46608 97 ft 144 kts 90°
2026-05-06 10:17 51.46476 -0.44778 263 ft 175 kts 87°
2026-05-06 10:18 51.46435 -0.42895 1120 ft 165 kts 89°
2026-05-06 10:18 51.46068 -0.41120 1753 ft 173 kts 122°
2026-05-06 10:18 51.45303 -0.39593 2179 ft 179 kts 126°
2026-05-06 10:18 51.44613 -0.37883 2552 ft 182 kts 113°
2026-05-06 10:19 51.44169 -0.35955 2868 ft 189 kts 101°
2026-05-06 10:19 51.43846 -0.33881 3174 ft 198 kts 99°
2026-05-06 10:19 51.43523 -0.31642 3478 ft 210 kts 99°
2026-05-06 10:19 51.43081 -0.29334 3690 ft 228 kts 107°
2026-05-06 10:20 51.42545 -0.26879 4020 ft 239 kts 104°
2026-05-06 10:20 51.42062 -0.24249 4297 ft 253 kts 99°
2026-05-06 10:20 51.41716 -0.21459 4759 ft 258 kts 97°
2026-05-06 10:20 51.41379 -0.18606 5288 ft 263 kts 98°
2026-05-06 10:21 51.41062 -0.16087 5737 ft 269 kts 98°
2026-05-06 10:21 51.40679 -0.13126 6311 ft 273 kts 99°
2026-05-06 10:21 51.40277 -0.10135 6864 ft 277 kts 99°
2026-05-06 10:21 51.39861 -0.07115 7487 ft 279 kts 99°
2026-05-06 10:22 51.39442 -0.04073 8120 ft 281 kts 100°
2026-05-06 10:22 51.39016 -0.00993 8748 ft 285 kts 100°
2026-05-06 10:22 51.38585 0.02108 9376 ft 288 kts 101°
2026-05-06 10:22 51.38147 0.05253 10027 ft 290 kts 101°
2026-05-06 10:23 51.37702 0.08447 10437 ft 301 kts 101°
2026-05-06 10:23 51.37237 0.11804 10732 ft 316 kts 101°
2026-05-06 10:23 51.36743 0.15315 11043 ft 330 kts 101°
2026-05-06 10:23 51.36228 0.18960 11371 ft 343 kts 102°
2026-05-06 10:24 51.35697 0.22756 11686 ft 356 kts 102°
2026-05-06 10:24 51.35139 0.26692 11995 ft 369 kts 102°
2026-05-06 10:24 51.34562 0.30734 12398 ft 378 kts 102°
2026-05-06 10:24 51.33974 0.34862 12995 ft 383 kts 102°
2026-05-06 10:25 51.33375 0.39050 13543 ft 387 kts 102°
2026-05-06 10:25 51.32771 0.43270 14081 ft 391 kts 102°
2026-05-06 10:25 51.32161 0.47527 14588 ft 395 kts 102°
2026-05-06 10:25 51.31547 0.51831 15105 ft 398 kts 102°
2026-05-06 10:26 51.30922 0.56156 15621 ft 401 kts 103°
2026-05-06 10:26 51.30298 0.60462 16114 ft 405 kts 103°
2026-05-06 10:26 51.29603 0.64896 16631 ft 408 kts 105°
2026-05-06 10:26 51.28809 0.69273 17142 ft 411 kts 107°
2026-05-06 10:27 51.27971 0.73641 17649 ft 414 kts 107°
2026-05-06 10:27 51.27116 0.78054 18187 ft 417 kts 107°
2026-05-06 10:27 51.26263 0.82504 18642 ft 420 kts 107°
2026-05-06 10:27 51.25419 0.86972 19132 ft 422 kts 107°
2026-05-06 10:28 51.24575 0.91489 19625 ft 425 kts 107°
2026-05-06 10:28 51.23745 0.95957 20110 ft 427 kts 107°
2026-05-06 10:28 51.22900 1.00515 20620 ft 430 kts 107°
2026-05-06 10:28 51.22050 1.05094 21131 ft 432 kts 107°
2026-05-06 10:29 51.21194 1.09690 21616 ft 435 kts 107°
2026-05-06 10:29 51.20328 1.14328 22100 ft 437 kts 107°
2026-05-06 10:29 51.19455 1.18987 22588 ft 440 kts 108°
2026-05-06 10:29 51.18576 1.23667 23101 ft 442 kts 108°
2026-05-06 10:30 51.17691 1.28365 23584 ft 444 kts 108°
2026-05-06 10:30 51.16819 1.33105 23978 ft 448 kts 105°
2026-05-06 10:30 51.16246 1.37996 24364 ft 451 kts 98°
2026-05-06 10:30 51.15899 1.42977 24773 ft 454 kts 97°
2026-05-06 10:31 51.15626 1.47990 25179 ft 456 kts 96°
2026-05-06 10:31 51.15387 1.53060 25573 ft 459 kts 95°
2026-05-06 10:31 51.15160 1.58142 25956 ft 461 kts 96°
2026-05-06 10:31 51.14929 1.63251 26335 ft 464 kts 96°
2026-05-06 10:32 51.14689 1.68372 26721 ft 466 kts 96°
2026-05-06 10:32 51.14439 1.73528 27102 ft 468 kts 96°
2026-05-06 10:32 51.14181 1.78711 27473 ft 471 kts 96°
2026-05-06 10:32 51.13915 1.83920 27868 ft 472 kts 96°
2026-05-06 10:33 51.13647 1.89140 28222 ft 475 kts 96°
2026-05-06 10:33 51.13374 1.94407 28561 ft 477 kts 96°
2026-05-06 10:33 51.13098 1.99670 28928 ft 479 kts 96°
2026-05-06 10:33 51.12829 2.04981 29264 ft 481 kts 96°
2026-05-06 10:34 51.12581 2.10299 29591 ft 483 kts 96°
2026-05-06 10:34 51.12338 2.15651 29886 ft 486 kts 96°
2026-05-06 10:34 51.12093 2.21019 30169 ft 488 kts 96°
2026-05-06 10:34 51.11844 2.26411 30504 ft 487 kts 96°
2026-05-06 10:35 51.11590 2.31785 30813 ft 487 kts 96°
2026-05-06 10:35 51.11332 2.37160 31130 ft 487 kts 96°
2026-05-06 10:35 51.11070 2.42535 31433 ft 487 kts 96°
2026-05-06 10:35 51.10804 2.47921 31735 ft 487 kts 96°
2026-05-06 10:36 51.10539 2.53221 32034 ft 487 kts 96°
2026-05-06 10:36 51.10269 2.58583 32324 ft 487 kts 96°
2026-05-06 10:36 51.09942 2.63939 32589 ft 486 kts 100°
2026-05-06 10:36 51.09278 2.69192 32859 ft 484 kts 105°
2026-05-06 10:37 51.08479 2.74404 33138 ft 484 kts 105°
2026-05-06 10:37 51.07672 2.79597 33424 ft 483 kts 106°
2026-05-06 10:37 51.06863 2.84763 33696 ft 483 kts 106°
2026-05-06 10:37 51.06046 2.89947 33952 ft 482 kts 106°
2026-05-06 10:38 51.05230 2.95108 34161 ft 482 kts 106°
2026-05-06 10:38 51.04412 3.00265 34353 ft 482 kts 106°
2026-05-06 10:38 51.03591 3.05427 34511 ft 482 kts 106°
2026-05-06 10:38 51.02769 3.10584 34685 ft 482 kts 106°
2026-05-06 10:39 51.01942 3.15760 34836 ft 483 kts 106°
2026-05-06 10:39 51.01112 3.20931 34898 ft 485 kts 106°
2026-05-06 10:39 50.99426 3.31396 34887 ft 491 kts 107°
2026-05-06 10:40 50.97733 3.41856 34877 ft 489 kts 107°
2026-05-06 10:40 50.96030 3.52309 34878 ft 489 kts 107°
2026-05-06 10:41 50.94321 3.62723 34878 ft 488 kts 107°
2026-05-06 10:41 50.92602 3.73136 34875 ft 488 kts 107°
2026-05-06 10:42 50.90874 3.83540 34879 ft 488 kts 108°
2026-05-06 10:42 50.89137 3.93934 34875 ft 489 kts 108°
2026-05-06 10:43 50.87685 4.02572 34876 ft 489 kts 108°
2026-05-06 10:44 50.85572 4.15067 34879 ft 489 kts 108°
2026-05-06 10:44 50.83804 4.25457 34877 ft 489 kts 108°
2026-05-06 10:45 50.82027 4.35838 34882 ft 489 kts 108°
2026-05-06 10:45 50.80238 4.46223 34880 ft 490 kts 109°
2026-05-06 10:46 50.78439 4.56608 34878 ft 490 kts 109°
2026-05-06 10:46 50.76629 4.66993 34871 ft 490 kts 109°
2026-05-06 10:47 50.74815 4.77344 34874 ft 490 kts 109°
2026-05-06 10:47 50.72981 4.87742 34861 ft 490 kts 109°
2026-05-06 10:48 50.71143 4.98102 34861 ft 491 kts 109°
2026-05-06 10:48 50.69294 5.08466 34857 ft 491 kts 109°
2026-05-06 10:49 50.67739 5.17142 34857 ft 491 kts 110°
2026-05-06 10:49 50.65888 5.27412 34852 ft 491 kts 110°
2026-05-06 10:50 50.64011 5.37766 34863 ft 491 kts 110°
2026-05-06 10:50 50.61807 5.49845 34850 ft 492 kts 110°
2026-05-06 10:51 50.60227 5.58460 34862 ft 492 kts 110°
2026-05-06 10:51 50.58321 5.68802 34836 ft 492 kts 110°
2026-05-06 10:52 50.56403 5.79146 34829 ft 493 kts 110°
2026-05-06 10:52 50.54477 5.89473 34827 ft 493 kts 110°
2026-05-06 10:53 50.52535 5.99831 34825 ft 493 kts 111°
2026-05-06 10:53 50.50590 6.10152 34814 ft 493 kts 111°
2026-05-06 10:54 50.48631 6.20487 34803 ft 494 kts 111°
2026-05-06 10:54 50.46662 6.30814 34790 ft 494 kts 111°
2026-05-06 10:55 50.44681 6.41142 34791 ft 494 kts 111°
2026-05-06 10:55 50.42696 6.51443 34779 ft 494 kts 111°
2026-05-06 10:56 50.40714 6.61677 34781 ft 493 kts 111°
2026-05-06 10:56 50.38713 6.71952 34776 ft 493 kts 111°
2026-05-06 10:57 50.36700 6.82234 34781 ft 493 kts 111°
2026-05-06 10:57 50.34680 6.92494 34776 ft 493 kts 112°
2026-05-06 10:58 50.32650 7.02747 34775 ft 494 kts 112°
2026-05-06 10:58 50.30606 7.13018 34765 ft 494 kts 112°
2026-05-06 10:59 50.28556 7.23270 34780 ft 494 kts 112°
2026-05-06 10:59 50.26493 7.33528 34769 ft 494 kts 112°
2026-05-06 11:00 50.24423 7.43769 34773 ft 494 kts 112°
2026-05-06 11:00 50.22341 7.54019 34764 ft 495 kts 112°
2026-05-06 11:01 50.20252 7.64246 34770 ft 495 kts 113°
2026-05-06 11:01 50.18155 7.74460 34759 ft 495 kts 113°
2026-05-06 11:02 50.16043 7.84683 34766 ft 495 kts 113°
2026-05-06 11:02 50.13925 7.94899 34785 ft 495 kts 113°
2026-05-06 11:03 50.11800 8.05097 34783 ft 495 kts 113°
2026-05-06 11:03 50.09667 8.15276 34797 ft 495 kts 113°
2026-05-06 11:04 50.07518 8.25472 34794 ft 495 kts 113°
2026-05-06 11:04 50.05366 8.35638 34801 ft 495 kts 113°
2026-05-06 11:05 50.03202 8.45812 34771 ft 495 kts 113°
2026-05-06 11:05 50.01029 8.55976 34773 ft 495 kts 113°
2026-05-06 11:06 49.98846 8.66134 34775 ft 496 kts 113°
2026-05-06 11:06 49.96655 8.76280 34777 ft 496 kts 113°
2026-05-06 11:07 49.94455 8.86420 34773 ft 495 kts 114°
2026-05-06 11:07 49.92245 8.96554 34776 ft 495 kts 114°
2026-05-06 11:08 49.90026 9.06678 34772 ft 495 kts 114°
2026-05-06 11:08 49.87802 9.16775 34771 ft 495 kts 114°
2026-05-06 11:09 49.85568 9.26870 34775 ft 495 kts 114°
2026-05-06 11:09 49.83338 9.36898 34776 ft 495 kts 114°
2026-05-06 11:10 49.81088 9.46966 34771 ft 495 kts 114°
2026-05-06 11:10 49.78816 9.57095 34777 ft 495 kts 114°
2026-05-06 11:11 49.76561 9.67086 34777 ft 495 kts 114°
2026-05-06 11:11 49.74268 9.77197 34781 ft 495 kts 114°
2026-05-06 11:12 49.71994 9.87182 34782 ft 495 kts 114°
2026-05-06 11:12 49.69699 9.97209 34785 ft 495 kts 114°
2026-05-06 11:13 49.67396 10.07228 34786 ft 495 kts 114°
2026-05-06 11:13 49.65080 10.17252 34792 ft 495 kts 114°
2026-05-06 11:14 49.62759 10.27253 34791 ft 495 kts 114°
2026-05-06 11:14 49.60430 10.37241 34798 ft 495 kts 114°
2026-05-06 11:15 49.58089 10.47232 34803 ft 496 kts 114°
2026-05-06 11:15 49.55739 10.57222 34782 ft 496 kts 114°
2026-05-06 11:16 49.53380 10.67200 34796 ft 496 kts 114°
2026-05-06 11:16 49.51015 10.77158 34795 ft 496 kts 114°
2026-05-06 11:17 49.48637 10.87126 34801 ft 496 kts 114°
2026-05-06 11:17 49.46248 10.97090 34802 ft 496 kts 114°
2026-05-06 11:18 49.43854 11.07034 34801 ft 496 kts 114°
2026-05-06 11:18 49.41452 11.16964 34801 ft 496 kts 114°
2026-05-06 11:19 49.39039 11.26896 34797 ft 496 kts 114°
2026-05-06 11:19 49.36621 11.36803 34795 ft 496 kts 114°
2026-05-06 11:20 49.34205 11.46658 34805 ft 496 kts 114°
2026-05-06 11:20 49.31768 11.56553 34809 ft 496 kts 114°
2026-05-06 11:21 49.29307 11.66506 34813 ft 496 kts 114°
2026-05-06 11:21 49.26866 11.76328 34816 ft 497 kts 114°
2026-05-06 11:22 49.24404 11.86196 34813 ft 497 kts 114°
2026-05-06 11:22 49.21930 11.96069 34813 ft 497 kts 114°
2026-05-06 11:23 49.19448 12.05926 34811 ft 497 kts 114°
2026-05-06 11:23 49.16957 12.15779 34808 ft 497 kts 114°
2026-05-06 11:24 49.14450 12.25650 34808 ft 498 kts 114°
2026-05-06 11:24 49.11940 12.35489 34805 ft 498 kts 114°
2026-05-06 11:25 49.09417 12.45339 34804 ft 498 kts 114°
2026-05-06 11:25 49.06888 12.55170 34803 ft 498 kts 114°
2026-05-06 11:26 49.04350 12.64990 34802 ft 498 kts 114°
2026-05-06 11:26 49.01801 12.74812 34799 ft 498 kts 114°
2026-05-06 11:27 48.99243 12.84626 34797 ft 498 kts 114°
2026-05-06 11:27 48.96677 12.94433 34799 ft 499 kts 114°
2026-05-06 11:28 48.94121 13.04156 34795 ft 499 kts 114°
2026-05-06 11:28 48.91540 13.13932 34795 ft 499 kts 114°
2026-05-06 11:29 48.88946 13.23716 34795 ft 499 kts 114°
2026-05-06 11:29 48.87652 13.28614 34900 ft 503 kts 118°
2026-05-06 11:29 48.86331 13.33576 34807 ft 508 kts 118°
2026-05-06 11:30 48.83659 13.43540 34796 ft 511 kts 118°
2026-05-06 11:30 48.80976 13.53530 34793 ft 510 kts 118°
2026-05-06 11:31 48.78291 13.63492 34795 ft 510 kts 118°
2026-05-06 11:31 48.75601 13.73442 34799 ft 511 kts 117°
2026-05-06 11:32 48.73013 13.83487 34799 ft 512 kts 116°
2026-05-06 11:32 48.70473 13.93568 34802 ft 512 kts 116°
2026-05-06 11:33 48.67910 14.03619 34802 ft 512 kts 117°
2026-05-06 11:33 48.65319 14.13662 34807 ft 512 kts 117°
2026-05-06 11:34 48.62718 14.23677 34802 ft 512 kts 117°
2026-05-06 11:34 48.60102 14.33706 34806 ft 513 kts 117°
2026-05-06 11:35 48.57484 14.43703 34804 ft 512 kts 117°
2026-05-06 11:35 48.55300 14.52012 34801 ft 512 kts 117°
2026-05-06 11:36 48.52663 14.62009 34799 ft 513 kts 117°
2026-05-06 11:36 48.49587 14.73613 34799 ft 513 kts 117°
2026-05-06 11:37 48.46932 14.83581 34803 ft 513 kts 117°
2026-05-06 11:37 48.44694 14.91946 34801 ft 513 kts 117°
2026-05-06 11:38 48.42024 15.01895 34809 ft 513 kts 117°
2026-05-06 11:38 48.39351 15.11807 34804 ft 514 kts 117°
2026-05-06 11:39 48.36642 15.21816 34803 ft 514 kts 117°
2026-05-06 11:39 48.33954 15.31699 34801 ft 513 kts 117°
2026-05-06 11:40 48.31243 15.41624 34804 ft 514 kts 117°
2026-05-06 11:40 48.28521 15.51554 34802 ft 514 kts 117°
2026-05-06 11:41 48.25792 15.61466 34801 ft 514 kts 117°
2026-05-06 11:41 48.23038 15.71423 34803 ft 514 kts 117°
2026-05-06 11:42 48.20306 15.81263 34807 ft 514 kts 117°
2026-05-06 11:42 48.17551 15.91149 34806 ft 514 kts 117°
2026-05-06 11:43 48.14782 16.01040 34812 ft 515 kts 117°
2026-05-06 11:43 48.12005 16.10914 34810 ft 515 kts 117°
2026-05-06 11:44 48.07822 16.25718 34815 ft 515 kts 117°
2026-05-06 11:44 48.05020 16.35581 34818 ft 515 kts 117°
2026-05-06 11:45 48.02212 16.45425 34827 ft 516 kts 117°
2026-05-06 11:45 47.99390 16.55279 34827 ft 516 kts 117°
2026-05-06 11:46 47.96562 16.65114 34827 ft 516 kts 117°
2026-05-06 11:46 47.93720 16.74958 34829 ft 516 kts 117°
2026-05-06 11:47 47.90878 16.84764 34842 ft 516 kts 117°
2026-05-06 11:47 47.88026 16.94560 34830 ft 515 kts 117°
2026-05-06 11:48 47.85164 17.04355 34842 ft 515 kts 117°
2026-05-06 11:48 47.82311 17.14126 34840 ft 515 kts 116°
2026-05-06 11:49 47.79884 17.24192 34845 ft 517 kts 111°
2026-05-06 11:49 47.77655 17.34357 34849 ft 517 kts 111°
2026-05-06 11:50 47.75354 17.44478 34858 ft 517 kts 112°
2026-05-06 11:50 47.72983 17.54565 34874 ft 517 kts 112°
2026-05-06 11:51 47.70603 17.64564 34882 ft 517 kts 112°
2026-05-06 11:51 47.68205 17.74599 34884 ft 516 kts 112°
2026-05-06 11:52 47.65799 17.84637 34882 ft 516 kts 112°
2026-05-06 11:52 47.63386 17.94661 34884 ft 516 kts 112°
2026-05-06 11:53 47.60970 18.04656 34886 ft 516 kts 112°
2026-05-06 11:53 47.58541 18.14657 34891 ft 516 kts 112°
2026-05-06 11:54 47.56105 18.24638 34898 ft 516 kts 112°
2026-05-06 11:54 47.54075 18.32928 34904 ft 516 kts 112°
2026-05-06 11:55 47.51204 18.44596 34908 ft 516 kts 112°